NOZ7878 ENHD-ENGM

Flight info

Callsign NOZ7878
Flight time N/A
Altitude 29000
Route ODINU1K ODINU DCT BOBGA DCT ADOPI ADOPI3L
Aircraft B738/M-SDE2E3FGHIRWXY/LB1

Departure

Time 2026-04-20 17:43
Airport Haugesund Airport, Karmøy (ENHD)

Arrival

Time N/A
Airport Oslo-Gardermoen International Airport (ENGM)
Time Latitude Longitude Altitude Speed Heading
2026-04-20 16:57 59.34444 5.21547 88 ft 0 kts 44°
2026-04-20 17:33 59.34443 5.21545 84 ft 1 kts 44°
2026-04-20 17:33 59.34431 5.21523 88 ft 3 kts 44°
2026-04-20 17:33 59.34417 5.21496 86 ft 3 kts 45°
2026-04-20 17:33 59.34404 5.21470 86 ft 2 kts 45°
2026-04-20 17:34 59.34399 5.21461 86 ft 0 kts 45°
2026-04-20 17:36 59.34399 5.21462 86 ft 0 kts 46°
2026-04-20 17:36 59.34401 5.21469 86 ft 3 kts 60°
2026-04-20 17:36 59.34394 5.21521 84 ft 7 kts 120°
2026-04-20 17:37 59.34350 5.21594 85 ft 0 kts 169°
2026-04-20 17:37 59.34344 5.21594 88 ft 2 kts 181°
2026-04-20 17:37 59.34329 5.21585 85 ft 3 kts 203°
2026-04-20 17:37 59.34319 5.21572 86 ft 0 kts 215°
2026-04-20 17:39 59.34316 5.21568 87 ft 2 kts 215°
2026-04-20 17:39 59.34286 5.21518 86 ft 9 kts 221°
2026-04-20 17:39 59.34214 5.21491 89 ft 14 kts 155°
2026-04-20 17:40 59.34133 5.21642 87 ft 19 kts 133°
2026-04-20 17:40 59.34031 5.21848 89 ft 23 kts 134°
2026-04-20 17:40 59.33920 5.22072 93 ft 24 kts 134°
2026-04-20 17:40 59.33803 5.22283 97 ft 22 kts 149°
2026-04-20 17:41 59.33793 5.22297 95 ft 0 kts 132°
2026-04-20 17:41 59.33793 5.22302 95 ft 0 kts 108°
2026-04-20 17:41 59.33796 5.22309 95 ft 1 kts 57°
2026-04-20 17:41 59.33804 5.22303 97 ft 1 kts 322°
2026-04-20 17:42 59.33818 5.22272 97 ft 18 kts 313°
2026-04-20 17:42 59.34198 5.21538 88 ft 131 kts 314°
2026-04-20 17:42 59.35010 5.19787 315 ft 206 kts 314°
2026-04-20 17:42 59.36040 5.17736 478 ft 200 kts 318°
2026-04-20 17:43 59.37002 5.16017 885 ft 176 kts 319°
2026-04-20 17:43 59.37850 5.14440 1157 ft 162 kts 319°
2026-04-20 17:43 59.38635 5.12941 1299 ft 154 kts 319°
2026-04-20 17:43 59.39382 5.11481 1350 ft 150 kts 319°
2026-04-20 17:44 59.40097 5.10065 1364 ft 141 kts 319°
2026-04-20 17:44 59.40768 5.08725 1288 ft 137 kts 319°
2026-04-20 17:44 59.41472 5.07394 1427 ft 146 kts 320°
2026-04-20 17:44 59.42235 5.05946 1788 ft 163 kts 319°
2026-04-20 17:45 59.43181 5.04242 2187 ft 204 kts 326°
2026-04-20 17:45 59.44591 5.03386 2559 ft 225 kts
2026-04-20 17:45 59.45982 5.04731 3205 ft 237 kts 49°
2026-04-20 17:45 59.46772 5.07605 4151 ft 242 kts 71°
2026-04-20 17:46 59.47268 5.10826 5246 ft 249 kts 75°
2026-04-20 17:46 59.47721 5.14152 6349 ft 254 kts 76°
2026-04-20 17:46 59.48176 5.17535 7423 ft 258 kts 76°
2026-04-20 17:46 59.48647 5.20980 8447 ft 264 kts 76°
2026-04-20 17:47 59.49137 5.24500 9483 ft 269 kts 76°
2026-04-20 17:47 59.49636 5.28040 9892 ft 270 kts 75°
2026-04-20 17:47 59.50146 5.31625 9974 ft 273 kts 75°
2026-04-20 17:47 59.50662 5.35220 10000 ft 273 kts 75°
2026-04-20 17:48 59.51181 5.38824 9956 ft 274 kts 75°
2026-04-20 17:48 59.51700 5.42422 9961 ft 273 kts 75°
2026-04-20 17:48 59.52219 5.46016 9952 ft 273 kts 75°
2026-04-20 17:48 59.52739 5.49614 9950 ft 273 kts 75°
2026-04-20 17:49 59.53257 5.53209 9948 ft 273 kts 75°
2026-04-20 17:49 59.53775 5.56803 9946 ft 272 kts 75°
2026-04-20 17:49 59.54291 5.60397 9942 ft 272 kts 75°
2026-04-20 17:49 59.54807 5.63986 9933 ft 272 kts 75°
2026-04-20 17:50 59.55322 5.67587 9941 ft 273 kts 75°
2026-04-20 17:50 59.55837 5.71190 9932 ft 273 kts 75°
2026-04-20 17:50 59.56352 5.74799 9926 ft 273 kts 75°
2026-04-20 17:50 59.56840 5.78354 9936 ft 272 kts 77°
2026-04-20 17:51 59.57309 5.81979 9944 ft 273 kts 77°
2026-04-20 17:51 59.57786 5.85607 9936 ft 273 kts 76°
2026-04-20 17:51 59.58273 5.89226 9941 ft 274 kts 76°
2026-04-20 17:51 59.58771 5.92850 9949 ft 273 kts 76°
2026-04-20 17:52 59.59271 5.96447 10150 ft 271 kts 76°
2026-04-20 17:52 59.59776 6.00043 10437 ft 274 kts 76°
2026-04-20 17:52 59.60290 6.03695 10680 ft 277 kts 76°
2026-04-20 17:52 59.60809 6.07362 10930 ft 278 kts 75°
2026-04-20 17:53 59.61330 6.11046 11177 ft 279 kts 75°
2026-04-20 17:53 59.61851 6.14728 11430 ft 279 kts 75°
2026-04-20 17:53 59.62374 6.18430 11678 ft 280 kts 75°
2026-04-20 17:53 59.62898 6.22144 11933 ft 281 kts 75°
2026-04-20 17:54 59.63424 6.25877 12189 ft 282 kts 75°
2026-04-20 17:54 59.63950 6.29620 12448 ft 284 kts 75°
2026-04-20 17:54 59.64480 6.33397 12706 ft 285 kts 75°
2026-04-20 17:54 59.65010 6.37185 12968 ft 286 kts 75°
2026-04-20 17:55 59.65540 6.40986 13226 ft 287 kts 75°
2026-04-20 17:55 59.66073 6.44808 13499 ft 288 kts 75°
2026-04-20 17:55 59.66599 6.48589 13759 ft 290 kts 75°
2026-04-20 17:55 59.67142 6.52499 14051 ft 292 kts 75°
2026-04-20 17:56 59.67672 6.56335 14328 ft 293 kts 76°
2026-04-20 17:56 59.68218 6.60282 14575 ft 294 kts 75°
2026-04-20 17:56 59.68917 6.64039 14818 ft 296 kts 66°
2026-04-20 17:56 59.69806 6.67723 15066 ft 297 kts 64°
2026-04-20 17:57 59.70738 6.71387 15318 ft 298 kts 64°
2026-04-20 17:57 59.71676 6.75061 15557 ft 300 kts 64°
2026-04-20 17:57 59.72610 6.78761 15809 ft 300 kts 64°
2026-04-20 17:57 59.73537 6.82471 16067 ft 301 kts 64°
2026-04-20 17:58 59.74463 6.86212 16331 ft 302 kts 64°
2026-04-20 17:58 59.75384 6.89963 16594 ft 303 kts 64°
2026-04-20 17:58 59.76304 6.93729 16862 ft 304 kts 64°
2026-04-20 17:58 59.77225 6.97516 17123 ft 305 kts 64°
2026-04-20 17:59 59.78148 7.01323 17391 ft 307 kts 65°
2026-04-20 17:59 59.79073 7.05154 17657 ft 308 kts 65°
2026-04-20 17:59 59.79998 7.08988 17931 ft 309 kts 65°
2026-04-20 17:59 59.80927 7.12853 18212 ft 311 kts 65°
2026-04-20 18:00 59.81866 7.16761 18495 ft 314 kts 65°
2026-04-20 18:00 59.82805 7.20680 18765 ft 314 kts 65°
2026-04-20 18:00 59.83732 7.24557 19012 ft 315 kts 65°
2026-04-20 18:00 59.84669 7.28484 19264 ft 314 kts 64°
2026-04-20 18:01 59.85606 7.32419 19499 ft 314 kts 64°
2026-04-20 18:01 59.86541 7.36348 19743 ft 314 kts 64°
2026-04-20 18:01 59.87476 7.40288 20001 ft 315 kts 64°
2026-04-20 18:01 59.88411 7.44234 20255 ft 316 kts 64°
2026-04-20 18:02 59.89348 7.48195 20506 ft 317 kts 64°
2026-04-20 18:02 59.90286 7.52167 20757 ft 318 kts 64°
2026-04-20 18:02 59.91230 7.56175 21017 ft 319 kts 64°
2026-04-20 18:02 59.92175 7.60193 21284 ft 321 kts 64°
2026-04-20 18:03 59.93124 7.64236 21540 ft 323 kts 64°
2026-04-20 18:03 59.94077 7.68302 21793 ft 324 kts 64°
2026-04-20 18:03 59.95030 7.72378 22055 ft 326 kts 64°
2026-04-20 18:03 59.95994 7.76507 22322 ft 329 kts 64°
2026-04-20 18:04 59.96963 7.80663 22600 ft 331 kts 64°
2026-04-20 18:04 59.97935 7.84844 22877 ft 334 kts 64°
2026-04-20 18:04 59.98914 7.89064 23155 ft 336 kts 65°
2026-04-20 18:04 59.99897 7.93309 23436 ft 337 kts 64°